| time (UTC) | temp F | wind direction | speed MPH | gust MPH | rain 1hr in | rain 24hr in | rain mn in | humidity % | barometer mb |
| 20260505022534 | 42 | 311 | 7.0 | 13.0 | 0.08 | 0.09 | 0.09 | 85 | 1014.2 |
| 20260505022032 | 43 | 300 | 7.0 | 13.0 | 0.06 | 0.07 | 0.07 | 84 | 1013.9 |
| 20260505021534 | 43 | 299 | 8.0 | 13.0 | 0.03 | 0.04 | 0.04 | 83 | 1013.8 |
| 20260505021028 | 44 | 292 | 7.0 | 12.0 | 0.02 | 0.03 | 0.03 | 82 | 1013.6 |
| 20260505020527 | 44 | 299 | 7.0 | 12.0 | 0.01 | 0.02 | 0.02 | 81 | 1013.5 |
| 20260505020030 | 44 | 296 | 7.0 | 11.0 | 0.01 | 0.02 | 0.02 | 80 | 1013.4 |
| 20260505015525 | 44 | 295 | 5.0 | 11.0 | 0.01 | 0.02 | 0.02 | 79 | 1013.4 |
| 20260505015024 | 45 | 302 | 5.0 | 11.0 | 0.00 | 0.01 | 0.01 | 78 | 1013.3 |
| 20260505014522 | 45 | 295 | 6.0 | 11.0 | 0.00 | 0.01 | 0.01 | 77 | 1013.2 |
| 20260505014020 | 45 | 285 | 4.0 | 11.0 | 0.00 | 0.01 | 0.01 | 76 | 1013.1 |
| 20260505013520 | 46 | 301 | 4.0 | 8.0 | 0.00 | 0.01 | 0.01 | 74 | 1013.0 |
| 20260505013023 | 46 | 336 | 4.0 | 8.0 | 0.00 | 0.01 | 0.01 | 74 | 1012.8 |
| 20260505012518 | 46 | 350 | 3.0 | 8.0 | 0.00 | 0.01 | 0.01 | 73 | 1012.8 |
| 20260505012016 | 47 | 21 | 1.0 | 7.0 | 0.00 | 0.01 | 0.01 | 72 | 1012.9 |
| 20260505011522 | 47 | 21 | 1.0 | 9.0 | 0.00 | 0.01 | 0.01 | 69 | 1012.7 |
| 20260505011014 | 48 | 34 | 4.0 | 9.0 | 0.00 | 0.01 | 0.01 | 67 | 1012.5 |
| 20260505010513 | 48 | 23 | 0.0 | 3.0 | 0.00 | 0.01 | 0.01 | 64 | 1012.7 |
| 20260505010023 | 48 | 23 | 1.0 | 5.0 | 0.00 | 0.01 | 0.01 | 62 | 1012.8 |
| 20260505005513 | 48 | 23 | 2.0 | 5.0 | 0.00 | 0.01 | 0.01 | 63 | 1012.7 |
| 20260505005013 | 48 | 23 | 0.0 | 6.0 | 0.00 | 0.01 | 0.01 | 63 | 1012.7 |
| 20260505004513 | 49 | 23 | 1.0 | 6.0 | 0.00 | 0.01 | 0.01 | 63 | 1012.7 |
| 20260505004012 | 49 | 23 | 1.0 | 5.0 | 0.00 | 0.01 | 0.01 | 62 | 1012.8 |
| 20260505003512 | 49 | 23 | 1.0 | 7.0 | 0.00 | 0.01 | 0.01 | 63 | 1012.7 |
| 20260505003012 | 49 | 23 | 4.0 | 8.0 | 0.00 | 0.01 | 0.01 | 63 | 1012.6 |
| 20260505002512 | 49 | 23 | 2.0 | 8.0 | 0.00 | 0.01 | 0.01 | 63 | 1012.5 |
| 20260505002012 | 49 | 23 | 1.0 | 6.0 | 0.00 | 0.01 | 0.01 | 62 | 1012.6 |
| 20260505001512 | 50 | 23 | 2.0 | 6.0 | 0.00 | 0.01 | 0.01 | 62 | 1012.6 |
| 20260505001111 | 50 | 23 | 0.0 | 5.0 | 0.00 | 0.01 | 0.01 | 62 | 1012.6 |
| 20260505000510 | 50 | 23 | 2.0 | 5.0 | 0.00 | 0.01 | 0.01 | 62 | 1012.5 |
| 20260505000016 | 49 | 23 | 1.0 | 4.0 | 0.00 | 0.01 | 0.01 | 64 | 1012.3 |
| 20260504235510 | 49 | 257 | 0.0 | 4.0 | 0.00 | 0.01 | 0.01 | 67 | 1012.3 |
| 20260504235010 | 49 | 178 | 0.0 | 4.0 | 0.00 | 0.01 | 0.01 | 70 | 1012.2 |
| 20260504234510 | 49 | 178 | 1.0 | 4.0 | 0.00 | 0.01 | 0.01 | 67 | 1012.3 |
| 20260504234010 | 49 | 178 | 1.0 | 4.0 | 0.00 | 0.01 | 0.01 | 69 | 1012.1 |
| 20260504233509 | 49 | 178 | 1.0 | 5.0 | 0.00 | 0.01 | 0.01 | 70 | 1012.2 |
| 20260504233009 | 49 | 178 | 3.0 | 5.0 | 0.01 | 0.01 | 0.01 | 70 | 1012.3 |
| 20260504232510 | 49 | 102 | 1.0 | 3.0 | 0.01 | 0.01 | 0.01 | 70 | 1012.3 |
| 20260504232009 | 49 | 102 | 0.0 | 3.0 | 0.01 | 0.01 | 0.01 | 70 | 1012.1 |
| 20260504231509 | 49 | 102 | 1.0 | 3.0 | 0.01 | 0.01 | 0.01 | 70 | 1012.2 |
| 20260504231010 | 49 | 102 | 0.0 | 3.0 | 0.01 | 0.01 | 0.01 | 69 | 1012.1 |
| 20260504230509 | 49 | 102 | 0.0 | 4.0 | 0.01 | 0.01 | 0.01 | 70 | 1011.9 |
| 20260504230009 | 49 | 102 | 1.0 | 6.0 | 0.01 | 0.01 | 0.01 | 72 | 1011.9 |
| 20260504225508 | 48 | 102 | 4.0 | 6.0 | 0.01 | 0.01 | 0.01 | 70 | 1011.8 |
| 20260504225008 | 48 | 200 | 1.0 | 3.0 | 0.01 | 0.01 | 0.01 | 74 | 1012.1 |
| 20260504224507 | 48 | 200 | 0.0 | 3.0 | 0.01 | 0.01 | 0.01 | 74 | 1012.1 |
| 20260504224007 | 48 | 200 | 0.0 | 2.0 | 0.01 | 0.01 | 0.01 | 73 | 1012.3 |
| 20260504223506 | 48 | 200 | 0.0 | 10.0 | 0.01 | 0.01 | 0.01 | 68 | 1012.4 |
| 20260504223005 | 49 | 200 | 5.0 | 16.0 | 0.00 | 0.00 | 0.00 | 64 | 1012.6 |
| 20260504222504 | 49 | 184 | 9.0 | 16.0 | 0.00 | 0.00 | 0.00 | 60 | 1012.8 |
| 20260504222002 | 51 | 230 | 10.0 | 15.0 | 0.00 | 0.00 | 0.00 | 57 | 1012.8 |
| 20260504221505 | 51 | 230 | 5.0 | 9.0 | 0.00 | 0.00 | 0.00 | 50 | 1012.7 |
| 20260504221001 | 51 | 250 | 4.0 | 11.0 | 0.00 | 0.00 | 0.00 | 50 | 1012.6 |
| 20260504220501 | 51 | 348 | 4.0 | 14.0 | 0.00 | 0.00 | 0.00 | 50 | 1012.1 |
| 20260504220001 | 52 | 358 | 6.0 | 16.0 | 0.00 | 0.00 | 0.00 | 49 | 1011.5 |
| 20260504215501 | 52 | 28 | 9.0 | 20.0 | 0.00 | 0.00 | 0.00 | 49 | 1010.8 |
| 20260504215102 | 52 | 7 | 8.0 | 20.0 | 0.00 | 0.00 | 0.00 | 49 | 1010.6 |
| 20260504214609 | 52 | 27 | 7.0 | 15.0 | 0.00 | 0.00 | 0.00 | 49 | 1010.4 |
| 20260504214100 | 52 | 25 | 5.0 | 19.0 | 0.00 | 0.00 | 0.00 | 49 | 1010.6 |
| 20260504213559 | 52 | 15 | 8.0 | 25.0 | 0.00 | 0.00 | 0.00 | 49 | 1010.5 |
| 20260504213112 | 52 | 19 | 11.0 | 25.0 | 0.00 | 0.00 | 0.00 | 48 | 1010.5 |
| 20260504212558 | 53 | 351 | 13.0 | 24.0 | 0.00 | 0.00 | 0.00 | 46 | 1010.7 |
| 20260504212058 | 53 | 4 | 12.0 | 24.0 | 0.00 | 0.00 | 0.00 | 45 | 1010.8 |
| 20260504211557 | 53 | 13 | 11.0 | 26.0 | 0.00 | 0.00 | 0.00 | 44 | 1010.8 |
| 20260504211057 | 53 | 344 | 13.0 | 26.0 | 0.00 | 0.00 | 0.00 | 44 | 1010.6 |
| 20260504210557 | 53 | 26 | 14.0 | 20.0 | 0.00 | 0.00 | 0.00 | 44 | 1010.6 |
| 20260504210057 | 54 | 31 | 12.0 | 25.0 | 0.00 | 0.00 | 0.00 | 42 | 1010.5 |
| 20260504205556 | 55 | 37 | 11.0 | 25.0 | 0.00 | 0.00 | 0.00 | 38 | 1010.5 |
| 20260504205054 | 56 | 5 | 11.0 | 22.0 | 0.00 | 0.00 | 0.00 | 37 | 1010.5 |
| 20260504204559 | 59 | 29 | 8.0 | 20.0 | 0.00 | 0.00 | 0.00 | 33 | 1010.4 |
| 20260504204053 | 61 | 17 | 7.0 | 20.0 | 0.00 | 0.00 | 0.00 | 31 | 1010.6 |
| 20260504203554 | 61 | 173 | 5.0 | 17.0 | 0.00 | 0.00 | 0.00 | 32 | 1010.6 |
| 20260504203153 | 61 | 240 | 8.0 | 17.0 | 0.00 | 0.00 | 0.00 | 32 | 1010.6 |
| 20260504202553 | 61 | 245 | 9.0 | 19.0 | 0.00 | 0.00 | 0.00 | 33 | 1010.5 |
| 20260504202053 | 61 | 230 | 12.0 | 20.0 | 0.00 | 0.00 | 0.00 | 32 | 1010.5 |
| 20260504201553 | 60 | 194 | 10.0 | 23.0 | 0.00 | 0.00 | 0.00 | 33 | 1010.5 |
| 20260504201052 | 59 | 202 | 13.0 | 24.0 | 0.00 | 0.00 | 0.00 | 33 | 1010.5 |
| 20260504200552 | 58 | 167 | 16.0 | 26.0 | 0.00 | 0.00 | 0.00 | 34 | 1010.7 |
| 20260504200053 | 58 | 215 | 16.0 | 26.0 | 0.00 | 0.00 | 0.00 | 36 | 1010.7 |
| 20260504195552 | 58 | 200 | 18.0 | 33.0 | 0.00 | 0.00 | 0.00 | 36 | 1010.6 |
| 20260504195053 | 58 | 202 | 26.0 | 33.0 | 0.00 | 0.00 | 0.00 | 36 | 1010.6 |
| 20260504194556 | 58 | 179 | 22.0 | 34.0 | 0.00 | 0.00 | 0.00 | 36 | 1010.6 |
| 20260504194051 | 58 | 189 | 25.0 | 34.0 | 0.00 | 0.00 | 0.00 | 36 | 1010.6 |
| 20260504193553 | 60 | 184 | 16.0 | 27.0 | 0.00 | 0.00 | 0.00 | 31 | 1010.7 |
| 20260504193050 | 60 | 225 | 15.0 | 26.0 | 0.00 | 0.00 | 0.00 | 28 | 1010.6 |
| 20260504192549 | 60 | 244 | 17.0 | 26.0 | 0.00 | 0.00 | 0.00 | 27 | 1010.5 |
| 20260504192050 | 60 | 230 | 17.0 | 24.0 | 0.00 | 0.00 | 0.00 | 29 | 1010.5 |
| 20260504191549 | 60 | 189 | 14.0 | 24.0 | 0.00 | 0.00 | 0.00 | 29 | 1010.6 |
| 20260504191049 | 60 | 235 | 17.0 | 24.0 | 0.00 | 0.00 | 0.00 | 27 | 1010.6 |
| 20260504190549 | 61 | 230 | 12.0 | 18.0 | 0.00 | 0.00 | 0.00 | 28 | 1010.7 |
| 20260504190048 | 61 | 254 | 4.0 | 11.0 | 0.00 | 0.00 | 0.00 | 29 | 1010.8 |
| 20260504185547 | 61 | 322 | 3.0 | 14.0 | 0.00 | 0.00 | 0.00 | 29 | 1010.9 |
| 20260504185046 | 61 | 240 | 10.0 | 15.0 | 0.00 | 0.00 | 0.00 | 29 | 1010.9 |
| 20260504184546 | 62 | 294 | 9.0 | 20.0 | 0.00 | 0.00 | 0.00 | 27 | 1011.0 |
| 20260504184046 | 63 | 290 | 8.0 | 20.0 | 0.00 | 0.00 | 0.00 | 27 | 1011.0 |
| 20260504183545 | 63 | 280 | 9.0 | 14.0 | 0.00 | 0.00 | 0.00 | 26 | 1011.1 |
| 20260504183045 | 63 | 297 | 7.0 | 16.0 | 0.00 | 0.00 | 0.00 | 28 | 1011.1 |
| 20260504182542 | 63 | 322 | 7.0 | 16.0 | 0.00 | 0.00 | 0.00 | 28 | 1011.2 |
| 20260504182042 | 61 | 300 | 6.0 | 16.0 | 0.00 | 0.00 | 0.00 | 30 | 1011.3 |
| 20260504181540 | 61 | 325 | 10.0 | 16.0 | 0.00 | 0.00 | 0.00 | 30 | 1011.5 |
| 20260504181039 | 60 | 270 | 8.0 | 16.0 | 0.00 | 0.00 | 0.00 | 32 | 1011.7 |
| 20260504180537 | 60 | 302 | 10.0 | 16.0 | 0.00 | 0.00 | 0.00 | 32 | 1011.8 |
| 20260504180045 | 60 | 226 | 7.0 | 16.0 | 0.00 | 0.00 | 0.00 | 32 | 1011.9 |
| 20260504175535 | 60 | 264 | 9.0 | 17.0 | 0.00 | 0.00 | 0.00 | 32 | 1012.0 |
| 20260504175035 | 59 | 269 | 10.0 | 18.0 | 0.00 | 0.00 | 0.00 | 33 | 1012.1 |
| 20260504174532 | 58 | 273 | 11.0 | 19.0 | 0.00 | 0.00 | 0.00 | 34 | 1012.3 |
| 20260504174032 | 58 | 287 | 12.0 | 17.0 | 0.00 | 0.00 | 0.00 | 34 | 1012.3 |
| 20260504173531 | 57 | 278 | 11.0 | 17.0 | 0.00 | 0.00 | 0.00 | 35 | 1012.3 |
| 20260504173032 | 57 | 283 | 10.0 | 16.0 | 0.00 | 0.00 | 0.00 | 35 | 1012.4 |
| 20260504172526 | 56 | 271 | 6.0 | 14.0 | 0.00 | 0.00 | 0.00 | 36 | 1012.5 |
| 20260504172025 | 56 | 323 | 8.0 | 16.0 | 0.00 | 0.00 | 0.00 | 36 | 1012.6 |
| 20260504171530 | 56 | 304 | 10.0 | 14.0 | 0.00 | 0.00 | 0.00 | 36 | 1012.7 |
| 20260504171022 | 55 | 275 | 9.0 | 17.0 | 0.00 | 0.00 | 0.00 | 36 | 1012.7 |
| 20260504170520 | 55 | 235 | 7.0 | 22.0 | 0.00 | 0.00 | 0.00 | 37 | 1012.7 |
| 20260504151000 | 54 | 240 | 9.0 | 17.0 | 0.00 | 0.00 | 0.00 | 34 | 1012.5 |
| 20260504150501 | 54 | 230 | 10.0 | 17.0 | 0.00 | 0.00 | 0.00 | 35 | 1012.5 |
| 20260504150111 | 54 | 175 | 8.0 | 16.0 | 0.00 | 0.00 | 0.00 | 34 | 1012.7 |
| 20260504141051 | 53 | 240 | 17.0 | 22.0 | 0.00 | 0.00 | 0.00 | 33 | 1012.5 |
| 20260504140550 | 53 | 247 | 16.0 | 21.0 | 0.00 | 0.00 | 0.00 | 32 | 1012.6 |
| 20260504130543 | 52 | 257 | 4.0 | 8.0 | 0.00 | 0.00 | 0.00 | 28 | 1012.8 |
| 20260504110527 | 53 | 246 | 13.0 | 17.0 | 0.00 | 0.00 | 0.00 | 26 | 1012.1 |
| 20260504100522 | 50 | 211 | 8.0 | 12.0 | 0.00 | 0.00 | 0.00 | 28 | 1012.4 |
| 20260504082005 | 50 | 235 | 3.0 | 5.0 | 0.00 | 0.00 | 0.00 | 29 | 1013.2 |
| 20260504081505 | 51 | 291 | 2.0 | 5.0 | 0.00 | 0.00 | 0.00 | 28 | 1013.2 |
| 20260504081008 | 51 | 291 | 0.0 | 10.0 | 0.00 | 0.00 | 0.00 | 28 | 1013.3 |
| 20260504080505 | 51 | 284 | 5.0 | 10.0 | 0.00 | 0.00 | 0.00 | 27 | 1013.3 |
| 20260504050543 | 50 | 192 | 4.0 | 9.0 | 0.00 | 0.00 | 0.00 | 35 | 1014.2 |
| 20260504045542 | 50 | 186 | 4.0 | 9.0 | 0.00 | 0.00 | 0.00 | 36 | 1014.2 |
| 20260504045043 | 50 | 208 | 4.0 | 9.0 | 0.00 | 0.00 | 0.00 | 36 | 1014.2 |
| 20260504044542 | 50 | 208 | 4.0 | 8.0 | 0.00 | 0.00 | 0.00 | 36 | 1014.3 |
| 20260504044041 | 51 | 205 | 3.0 | 8.0 | 0.00 | 0.00 | 0.00 | 35 | 1014.3 |
| 20260504043541 | 52 | 267 | 4.0 | 8.0 | 0.00 | 0.00 | 0.00 | 34 | 1014.3 |
| 20260504043041 | 51 | 259 | 4.0 | 8.0 | 0.00 | 0.00 | 0.00 | 34 | 1014.3 |
| 20260504042541 | 51 | 190 | 3.0 | 5.0 | 0.00 | 0.00 | 0.00 | 36 | 1014.3 |
| 20260504042040 | 51 | 235 | 3.0 | 6.0 | 0.00 | 0.00 | 0.00 | 35 | 1014.3 |
| 20260504041540 | 52 | 207 | 3.0 | 8.0 | 0.00 | 0.00 | 0.00 | 35 | 1014.3 |
| 20260504041039 | 52 | 215 | 2.0 | 10.0 | 0.00 | 0.00 | 0.00 | 34 | 1014.4 |
| 20260504040541 | 53 | 200 | 5.0 | 10.0 | 0.00 | 0.00 | 0.00 | 34 | 1014.4 |
| 20260504040100 | 54 | 206 | 5.0 | 10.0 | 0.00 | 0.00 | 0.00 | 33 | 1014.4 |
| 20260504035539 | 54 | 235 | 7.0 | 13.0 | 0.00 | 0.00 | 0.00 | 32 | 1014.3 |
| 20260504035039 | 54 | 235 | 8.0 | 14.0 | 0.00 | 0.00 | 0.00 | 32 | 1014.4 |
| 20260504034540 | 54 | 235 | 10.0 | 14.0 | 0.00 | 0.00 | 0.00 | 33 | 1014.4 |
| 20260504034038 | 54 | 210 | 5.0 | 14.0 | 0.00 | 0.00 | 0.00 | 33 | 1014.5 |
| 20260504033537 | 54 | 240 | 10.0 | 14.0 | 0.00 | 0.00 | 0.00 | 33 | 1014.5 |
| 20260504033037 | 54 | 244 | 9.0 | 13.0 | 0.00 | 0.00 | 0.00 | 34 | 1014.5 |
| 20260504032538 | 54 | 230 | 8.0 | 11.0 | 0.00 | 0.00 | 0.00 | 34 | 1014.5 |
| 20260504032037 | 54 | 191 | 7.0 | 12.0 | 0.00 | 0.00 | 0.00 | 34 | 1014.5 |
| 20260504031538 | 54 | 196 | 9.0 | 12.0 | 0.00 | 0.00 | 0.00 | 33 | 1014.5 |
| 20260504031037 | 54 | 202 | 9.0 | 12.0 | 0.00 | 0.00 | 0.00 | 33 | 1014.4 |
| 20260504030536 | 54 | 230 | 8.0 | 12.0 | 0.00 | 0.00 | 0.00 | 33 | 1014.5 |
| 20260504030036 | 54 | 208 | 5.0 | 12.0 | 0.00 | 0.00 | 0.00 | 33 | 1014.4 |
| 20260504025536 | 54 | 203 | 6.0 | 12.0 | 0.00 | 0.00 | 0.00 | 33 | 1014.4 |
| 20260504025038 | 55 | 221 | 7.0 | 15.0 | 0.00 | 0.00 | 0.00 | 33 | 1014.4 |
| 20260504024534 | 55 | 235 | 11.0 | 15.0 | 0.00 | 0.00 | 0.00 | 32 | 1014.4 |
| 20260504024034 | 55 | 225 | 9.0 | 15.0 | 0.00 | 0.00 | 0.00 | 32 | 1014.3 |
| 20260504023535 | 55 | 250 | 9.0 | 14.0 | 0.00 | 0.00 | 0.00 | 32 | 1014.3 |
| 20260504023034 | 55 | 240 | 10.0 | 14.0 | 0.00 | 0.00 | 0.00 | 31 | 1014.3 |